Regional Weather Roundup
Issued by NWS Cleveland, OH

Home | Current Version | Previous Version | Text Only | Print | Product List | Glossary Off
Versions: 1 2 3 4 5 6 7 8 9 10 11 12 13 14 15 16 17 18 19 20 21 22 23 24 25 26 27 28 29 30 31 32 33 34 35 36 37 38 39 40 41 42 43 44 45 46 47 48 49 50

000
ASUS41 KCLE 040000
RWRCLE
OHIO REGIONAL WEATHER ROUNDUP
NATIONAL WEATHER SERVICE WILMINGTON, OH
700 PM EST SAT DEC 03 2016

NOTE: "FAIR" INDICATES FEW OR NO CLOUDS BELOW 12,000 FEET WITH NO
SIGNIFICANT WEATHER AND/OR OBSTRUCTIONS TO VISIBILITY.

OHZ001>008-015>018-024>027-034-035-043-044-040100-
   NORTHWEST OHIO

CITY           SKY/WX    TMP DP  RH WIND       PRES   REMARKS
DEFIANCE       CLOUDY    37  28  70 CALM      30.30F
FINDLAY        CLOUDY    37  24  59 NW3       30.29F
TOLEDO EXPRESS CLOUDY    36  28  73 CALM      30.29F
TOLEDO EXEC    CLOUDY    37  30  75 CALM      30.31F
LIMA           CLOUDY    34  27  75 NW5       30.29F WCI  30
$$

OHZ009>014-019>023-028>033-038-089-040100-
   NORTHEAST OHIO

CITY           SKY/WX    TMP DP  RH WIND       PRES   REMARKS
CLE-HOPKINS    CLOUDY    39  26  59 W9        30.32S
CLE-LAKEFRONT  CLOUDY    39  28  64 SW9       30.29F
CUY CO. ARPT   NOT AVBL
LORAIN-ELYRIA  CLOUDY    36  25  64 W6        30.31S
ASHTABULA      CLOUDY    36  35  96 W7        30.28S
AKRON-CANTON   CLOUDY    37  26  64 W5        30.29S
WOOSTER        NOT AVBL
MANSFIELD      CLOUDY    35  25  66 CALM      30.28F
YOUNGSTOWN     CLOUDY    36  30  79 W7        30.27S
$$

OHZ042-051>053-060>062-070>072-077>081-040100-
  SOUTHWEST OHIO

CITY           SKY/WX    TMP DP  RH WIND       PRES   REMARKS
CINC-COVINGTON CLOUDY    38  29  70 NW6       30.30S
CINC-LUNKEN    CLOUDY    40  34  79 CALM      30.33S
HAMILTON       CLOUDY    40  29  64 NW5       30.33R
DAYTON         NOT AVBL
WRIGHT-PAT AFB NOT AVBL
DAYTON GENERAL CLOUDY    38  28  67 CALM      30.30S
WILMINGTON     CLOUDY    35  28  75 CALM      30.30R
$$

OHZ036-037-039>041-045>050-054>059-063>069-073>076-082>088-040100-
  CENTRAL AND SOUTHEAST OHIO

CITY           SKY/WX    TMP DP  RH WIND       PRES   REMARKS
COLUMBUS       CLOUDY    38  30  73 NE6       30.30F
OSU AIRPORT    CLOUDY    37  29  72 N3        30.29F
BOLTON FIELD   CLOUDY    37  30  75 N3        30.30F
RICKENBACK AFB CLOUDY    37  29  73 CALM      30.31S
NEWARK         CLOUDY    37  26  64 CALM      30.30F
MARION         CLOUDY    36  27  69 CALM      30.29F
LANCASTER      CLOUDY    38  31  76 CALM      30.31S
ZANESVILLE     CLOUDY    37  27  67 CALM      30.31S
NEW PHILLY     CLOUDY    37  26  64 W3        30.32R
$$



USA.gov is the U.S. government's official web portal to all federal, state and local government web resources and services.